Hauptseite
METAR-TAF:

METAR-TAF

Flughäfen :

Cuneo, Italien

Flughafen Cuneo

Breite: 44-32-47N, Länge: 007-37-20E, Höhe: 386 m

Beobachtung

Neuester Wetterbericht von vor 1 Stunde und 1 Minuten, um 05:50 UTC
Wind 5 kt aus West/Südwest
Temperatur 11°C
Luftfeuchtigkeit 76%
Luftdruck 1019 hPa
Sichtweite 10 km oder mehr
keine Wolken unter 1500 m und keine Kumulonimbus oder Gewitterwolken

METAR: LIMZ 220550Z 24005KT CAVOK 11/07 Q1019

Zeit: 08:51 (06:51 UTC)

Prognose

Neuester Wetterbericht von vor 1 Stunde und 51 Minuten, um 05:00 UTC
Gültige Prognose vom 22 um 06 UTC bis 23 um 06 UTC
Wind 5 kt aus unterschiedlichen Richtungen
Sichtweite 10 km oder mehr
keine Wolken unter 1500 m und keine Kumulonimbus oder Gewitterwolken

TAF: LIMZ 220500Z 2206/2306 VRB05KT CAVOK

Wetterbeobachtungen und Prognosen von mehr als 4000 Flughäfen (METAR und TAF Bericht).

Die verfügbaren Stationen werden durch gelbe und rote Markierungen auf der Karte dargestellt.

Führen Sie die Maus auf sie, um den Namen der Station zu sehen.

Darauf klicken, um die Beobachtung von Wetterbeobachtungen und Prognosen zu sehen.

Um die Karte zu ändern : klicken Sie auf den grünen Tasten mit einem schwarzen Kreuz Zum Vergrößern, auf den grünen Button mit einem Gedankenstrich zu verkleinern, oder auf die grünen Pfeile für benachbarte Karten.


METAR-TAF: